[[{"header":{"parameterUnit":"m.s-1","parameterCategory":2,"la1":30.2991,"la2":30.254,"lo1":-89.0895,"lo2":-89.0444,"dy":0.0017,"dx":0.0017,"nx":28,"ny":28,"refTime":"2023-06-28T21:00:00:Z","depth":"0","parameterNumber":2,"parameterNumberName":"U-component_of_CURRENTS"},"data":[0,0,0,0,0,0,0,0,0,0,0,0,0,0,0,0,0,0,0,0,0,0,0,0,0,0,0,0,0,0,0,0,0,0,0,0,0,0,0,0,0,0,0,0,0,0,0,0,0,0,0,0,0,0,0,0,0,0,0.606,0.6061,0,0.6122,0.6122,0.6122,0.6096,0.6096,0.6095,0.6094,0.6041,0.604,0.6039,0,0,0,0,0,0,0,0,0,0,0,0,0,0.5935,0.5936,0.6059,0.6061,0.6063,0.6122,0.6122,0.6122,0.6097,0.6096,0.6095,0.6094,0.6041,0.604,0.6039,0,0,0,0,0,0,0,0,0,0,0,0,0,0.5984,0.5937,0.6059,0.6064,0.6065,0.6122,0.6122,0.6122,0.6097,0.6096,0.6095,0.6094,0.6041,0.604,0.6039,0.6052,0,0,0.6035,0.6035,0,0,0,0,0,0,0,0,0.5981,0.5987,0.6061,0.6063,0.6066,0.6108,0.6059,0.6096,0.6097,0.6075,0.6094,0.6093,0.6059,0.6056,0.6059,0.6049,0.6047,0.6035,0.6034,0.6034,0.6034,0,0,0,0,0,0,0,0.5978,0.5985,0.6075,0.6063,0.6066,0.6069,0.6074,0.6066,0.6063,0.6077,0.6078,0.6099,0.6058,0.6061,0.6058,0.6046,0.6035,0.6034,0.6033,0.6033,0.6145,0.6149,0,0,0,0,0,0,0.5988,0.5982,0.6073,0.6078,0.603,0.6073,0.6077,0.6088,0.6066,0.6065,0.61,0.6098,0.6063,0.6059,0.6056,0.6069,0.6034,0.6033,0.6032,0.6142,0.6146,0.615,0,0,0,0,0,0,0.5985,0.5995,0.6071,0.6039,0.605,0.6077,0.6089,0.609,0.6097,0.6086,0.6081,0.6107,0.6062,0.6057,0.6068,0.6067,0.6032,0.6031,0.6137,0.6143,0.6148,0.6096,0,0,0,0,0,0,0.5981,0.5993,0.5997,0.6039,0.6052,0.611,0.6091,0.6093,0.6116,0.6114,0.609,0.6084,0.6061,0.607,0.6067,0.6064,0.603,0.6133,0.614,0.6146,0.6093,0.6099,0.6104,0,0,0,0,0,0.5976,0.5978,0.5997,0.6008,0.6059,0.6112,0.6117,0.6127,0.6118,0.6126,0.6121,0.6085,0.6114,0.6071,0.6067,0.6063,0.6129,0.6138,0.6146,0.6091,0.6098,0.6104,0,0,0,0,0,0,0.5916,0.5979,0.5999,0.6018,0.607,0.611,0.611,0.6135,0.6139,0.6121,0.6109,0.6104,0.6131,0.6126,0.608,0.6134,0.6125,0.6133,0.6085,0.6092,0.6098,0.6109,0.6029,0,0,0,0,0,0.5914,0.5933,0.6002,0.6018,0.6036,0.6078,0.6098,0.6115,0.6134,0.6133,0.6126,0.6135,0.6166,0.6147,0.6177,0.6172,0.6222,0.6186,0.6192,0.6195,0.6213,0.6311,0.6325,0.6178,0.6178,0.6177,0,0,0.59,0.5934,0.5948,0.6009,0.6032,0.6056,0.6083,0.611,0.6125,0.6126,0.612,0.6158,0.6185,0.6199,0.6209,0.6178,0.6267,0.6206,0.6208,0.6224,0.6321,0.6335,0.6347,0.6183,0.6182,0.6181,0,0,0.5877,0.5905,0.5914,0.5955,0.6009,0.6035,0.6051,0.6098,0.6106,0.614,0.6157,0.6202,0.6216,0.6235,0.6249,0.6312,0.6319,0.6325,0.6311,0.6404,0.6415,0.6426,0.6496,0.6513,0.6293,0.6293,0.6293,0,0.5852,0.5866,0.5926,0.5945,0.5957,0.6026,0.6026,0.6064,0.6113,0.6122,0.6135,0.6225,0.6241,0.6273,0.6306,0.6315,0.637,0.6257,0.6405,0.6416,0.6428,0.6498,0.6517,0.6291,0.6292,0.6292,0.6292,0,0.5841,0.585,0.585,0.589,0.5923,0.5929,0.5997,0.6025,0.6053,0.6097,0.6162,0.6217,0.6271,0.6291,0.6311,0.6398,0.6412,0.6417,0.6364,0.6438,0.6509,0.653,0.6289,0.629,0.629,0.6291,0,0,0.5751,0.5825,0.5814,0.5814,0.5878,0.5895,0.5931,0.5974,0.5992,0.6072,0.6106,0.6201,0.6258,0.6289,0.6326,0.6398,0.6528,0.6437,0.6442,0.6467,0.673,0.6591,0.66,0.655,0.6554,0.6557,0.6738,0,0.5698,0.5703,0.5756,0.5742,0.5737,0.5809,0.5834,0.5897,0.5961,0.6021,0.6118,0.618,0.6246,0.6275,0.6372,0.6511,0.6587,0.6479,0.6692,0.6699,0.6532,0.6621,0.6286,0.6406,0.6759,0.6763,0.6765,0,0.5635,0.5643,0.5626,0.5648,0.5649,0.5666,0.5699,0.5744,0.5867,0.5918,0.6026,0.6124,0.6269,0.6311,0.6577,0.6507,0.6631,0.6725,0.6734,0.6639,0.6599,0.64,0.6432,0.6212,0.6798,0.6796,0.6793,0,0.5509,0.5527,0.5498,0.5511,0.5573,0.5572,0.5604,0.5705,0.5729,0.5872,0.5917,0.6107,0.6204,0.6414,0.6629,0.6627,0.6905,0.6915,0.6899,0.689,0.6666,0.6629,0.6474,0.7101,0.7101,0.7101,0.71,0,0.5407,0.5373,0.5439,0.5427,0.5384,0.5474,0.5461,0.5533,0.5635,0.567,0.5864,0.594,0.6244,0.6431,0.6634,0.6826,0.6916,0.6926,0.6937,0.6638,0.6599,0.6447,0.637,0.7107,0.7106,0.7104,0.7103,0,0.5273,0.5321,0.5283,0.5324,0.5333,0.5307,0.5355,0.5359,0.5482,0.5547,0.5592,0.5846,0.6105,0.6361,0.6694,0.6793,0.6791,0.7029,0.6642,0.6603,0.6367,0.6301,0.6097,0.5947,0.7068,0.7066,0.7064,0,0.5202,0.5176,0.519,0.5162,0.5174,0.5164,0.5158,0.5264,0.5292,0.5484,0.5512,0.5765,0.5927,0.6331,0.6547,0.6823,0.6676,0.6643,0.6579,0.6312,0.6251,0.608,0.5957,0.6275,0.6267,0.626,0.6255,0,0.5043,0.5057,0.5035,0.4994,0.4969,0.4932,0.4955,0.4964,0.5108,0.5175,0.5314,0.5456,0.5823,0.5958,0.6271,0.6414,0.6253,0.6513,0.634,0.5702,0.5405,0.5274,0.6198,0.6195,0.6201,0.6206,0.6209,0.6211,0.4905,0.4851,0.4835,0.4781,0.4743,0.4692,0.4624,0.4697,0.4715,0.4822,0.5078,0.5222,0.5427,0.5835,0.591,0.5767,0.59,0.5652,0.563,0.551,0.5221,0.5999,0.5936,0.594,0.5944,0.5947,0.595,0,0.47,0.4677,0.462,0.4525,0.4413,0.4476,0.4457,0.4398,0.438,0.4608,0.4729,0.4854,0.4919,0.5071,0.505,0.4908,0.4763,0.477,0.4432,0.4393,0.5164,0.4979,0.4573,0.4573,0.4573,0.4574,0.4574,0.4574,0.4589,0.4479,0.4464,0.4227,0.4162,0.3972,0.394,0.3924,0.404,0.4081,0.4153,0.4321,0.445,0.4419,0.4216,0.413,0.3866,0.3666,0.3776,0.4268,0.4347,0.4422,0.4226,0.3669,0.3668,0.2794,0.2787,0.2781]},{"header":{"parameterUnit":"m.s-1","parameterCategory":2,"la1":30.2991,"la2":30.254,"lo1":-89.0895,"lo2":-89.0444,"dy":0.0017,"dx":0.0017,"nx":28,"ny":28,"refTime":"2023-06-28T21:00:00:Z","depth":"0","parameterNumber":3,"parameterNumberName":"V-component_of_CURRENTS"},"data":[0,0,0,0,0,0,0,0,0,0,0,0,0,0,0,0,0,0,0,0,0,0,0,0,0,0,0,0,0,0,0,0,0,0,0,0,0,0,0,0,0,0,0,0,0,0,0,0,0,0,0,0,0,0,0,0,0,0,0.1074,0.1073,0,0.1037,0.1037,0.1036,0.0967,0.0965,0.0964,0.0962,0.0869,0.0868,0.0867,0,0,0,0,0,0,0,0,0,0,0,0,0,0.1125,0.1125,0.1074,0.1073,0.1073,0.1037,0.1037,0.1036,0.0967,0.0965,0.0964,0.0962,0.087,0.0869,0.0867,0,0,0,0,0,0,0,0,0,0,0,0,0,0.1099,0.1124,0.1074,0.1032,0.1028,0.1037,0.1037,0.1036,0.0968,0.0965,0.0963,0.0961,0.087,0.0869,0.0867,0.0903,0,0,0.0862,0.0862,0,0,0,0,0,0,0,0,0.11,0.1097,0.1039,0.1035,0.1031,0.1002,0.102,0.0988,0.0968,0.0993,0.0962,0.096,0.0909,0.0904,0.0906,0.0899,0.0895,0.0862,0.0861,0.0861,0.086,0,0,0,0,0,0,0,0.1102,0.1099,0.1061,0.1039,0.1033,0.1029,0.1023,0.1015,0.0965,0.0991,0.0985,0.0978,0.0906,0.0908,0.0903,0.0894,0.0862,0.0861,0.086,0.0859,0.0961,0.0964,0,0,0,0,0,0,0.1103,0.11,0.1062,0.106,0.1058,0.103,0.1023,0.1015,0.0966,0.0956,0.098,0.0975,0.0912,0.0905,0.0899,0.0996,0.0861,0.0859,0.0858,0.0957,0.0961,0.0965,0,0,0,0,0,0,0.1105,0.11,0.1064,0.1078,0.1072,0.1031,0.1024,0.1016,0.1019,0.0958,0.0947,0.0991,0.091,0.0902,0.0919,0.0989,0.0858,0.0857,0.0953,0.0958,0.0963,0.1152,0,0,0,0,0,0,0.1106,0.1101,0.1106,0.1078,0.1071,0.1095,0.1025,0.1017,0.1017,0.101,0.0964,0.0953,0.0907,0.0922,0.0918,0.0985,0.0856,0.0948,0.0955,0.0962,0.1142,0.1164,0.1183,0,0,0,0,0,0.1108,0.1121,0.1106,0.1102,0.1076,0.1098,0.1097,0.1059,0.102,0.1048,0.1016,0.0954,0.0962,0.0924,0.0918,0.0986,0.0945,0.0953,0.0961,0.1132,0.1159,0.1182,0,0,0,0,0,0,0.1143,0.1114,0.1097,0.1099,0.1111,0.1085,0.11,0.1076,0.1074,0.1063,0.0997,0.0987,0.1032,0.0987,0.0946,0.1038,0.0946,0.0953,0.1078,0.1103,0.1123,0.1148,0.0854,0,0,0,0,0,0.1155,0.1155,0.1143,0.1149,0.1159,0.1136,0.1139,0.1123,0.111,0.1105,0.1077,0.1055,0.1065,0.1063,0.1059,0.1105,0.1055,0.1147,0.1168,0.1185,0.1204,0.1207,0.1229,0.0992,0.0992,0.0992,0,0,0.1176,0.1153,0.1158,0.1158,0.1157,0.1206,0.1133,0.1155,0.12,0.1098,0.1151,0.1127,0.1095,0.1153,0.1169,0.1119,0.1225,0.1196,0.1211,0.122,0.1218,0.1241,0.1261,0.0998,0.0997,0.0996,0,0,0.1219,0.1199,0.1224,0.1244,0.1252,0.1259,0.1274,0.1275,0.128,0.1333,0.1277,0.1301,0.1303,0.1306,0.1303,0.1437,0.1337,0.1432,0.1552,0.1556,0.1575,0.1592,0.1546,0.1557,0.1439,0.1439,0.144,0,0.1241,0.1266,0.1242,0.128,0.1309,0.1293,0.1357,0.138,0.139,0.1407,0.1375,0.1418,0.1387,0.1462,0.1511,0.1485,0.1446,0.1459,0.1583,0.1598,0.1611,0.156,0.157,0.1449,0.1448,0.1447,0.1446,0,0.1317,0.1343,0.1367,0.1414,0.1452,0.1504,0.1536,0.1581,0.1587,0.1596,0.167,0.1652,0.1669,0.1679,0.1636,0.1729,0.1656,0.1609,0.1517,0.1646,0.1584,0.1591,0.1464,0.146,0.1457,0.1455,0,0,0.134,0.1407,0.1415,0.1463,0.1525,0.1569,0.1664,0.174,0.1803,0.1831,0.1917,0.1949,0.1922,0.1919,0.188,0.1893,0.195,0.1802,0.1797,0.1752,0.1924,0.1805,0.1798,0.192,0.1922,0.1925,0.1838,0,0.1409,0.1505,0.1524,0.1649,0.1714,0.1744,0.1839,0.1903,0.1949,0.2034,0.2036,0.21,0.2019,0.2043,0.2052,0.1992,0.1977,0.1975,0.181,0.1804,0.168,0.1807,0.17,0.1609,0.1843,0.1844,0.1844,0,0.1478,0.1532,0.1654,0.1768,0.1801,0.1881,0.2017,0.2097,0.2197,0.2233,0.229,0.2281,0.2336,0.2243,0.2198,0.2197,0.2077,0.2008,0.2002,0.1832,0.17,0.1522,0.161,0.1304,0.1852,0.1852,0.1851,0,0.1508,0.1625,0.1724,0.1764,0.1896,0.196,0.2041,0.2149,0.2243,0.2358,0.244,0.2468,0.2511,0.2411,0.2275,0.2237,0.2199,0.2115,0.1883,0.1869,0.1717,0.1687,0.1487,0.2058,0.2058,0.2058,0.2058,0,0.1569,0.1647,0.1746,0.18,0.1939,0.2008,0.2164,0.224,0.2388,0.2533,0.2538,0.2659,0.2559,0.2522,0.2351,0.2156,0.2246,0.193,0.1863,0.1777,0.1755,0.1427,0.1329,0.2055,0.2055,0.2056,0.2057,0,0.1586,0.1652,0.1764,0.1898,0.1952,0.2045,0.2239,0.2364,0.2479,0.2678,0.273,0.2821,0.2777,0.2624,0.2472,0.2252,0.19,0.1955,0.1842,0.1763,0.123,0.1149,0.0945,0.0853,0.1684,0.1681,0.1678,0,0.1602,0.1659,0.181,0.1891,0.1955,0.2106,0.2236,0.2394,0.2547,0.2784,0.2903,0.2928,0.2983,0.2707,0.235,0.2019,0.1797,0.1638,0.1545,0.121,0.107,0.102,0.0956,0.1405,0.14,0.1397,0.1393,0,0.1618,0.1666,0.1764,0.1923,0.2061,0.2241,0.2435,0.2569,0.2788,0.2966,0.3188,0.3246,0.2989,0.2654,0.2173,0.1901,0.1426,0.1543,0.1248,0.0893,0.078,0.0654,0.1417,0.136,0.1363,0.1366,0.1367,0.1369,0.1616,0.1684,0.1808,0.1968,0.2136,0.2361,0.2521,0.2751,0.3005,0.3305,0.3362,0.3484,0.291,0.2266,0.1883,0.1023,0.117,0.0725,0.0669,0.0658,0.0534,0.1202,0.1038,0.104,0.1041,0.1042,0.1043,0,0.1605,0.1704,0.185,0.2053,0.2241,0.2345,0.2654,0.2838,0.313,0.3417,0.361,0.331,0.2611,0.1897,0.0786,0.0242,0.0107,-0.0056,-0.0164,-0.0172,0.0431,0.0377,0.0001,0.0001,0.0002,0.0002,0.0002,0.0003,0.1604,0.1724,0.1818,0.2096,0.2258,0.2534,0.2716,0.3002,0.3253,0.3509,0.3549,0.3545,0.2815,0.0976,-0.0299,-0.055,-0.0811,-0.0906,-0.0966,-0.0621,-0.0553,-0.0488,-0.0569,-0.1137,-0.1138,-0.1573,-0.1578,-0.1582]}],[{"header":{"parameterUnit":"m.s-1","parameterCategory":2,"la1":30.2991,"la2":30.254,"lo1":-89.0895,"lo2":-89.0444,"dy":0.0017,"dx":0.0017,"nx":28,"ny":28,"refTime":"2023-06-28T21:00:00:Z","depth":"2","parameterNumber":2,"parameterNumberName":"U-component_of_CURRENTS"},"data":[0,0,0,0,0,0,0,0,0,0,0,0,0,0,0,0,0,0,0,0,0,0,0,0,0,0,0,0,0,0,0,0,0,0,0,0,0,0,0,0,0,0,0,0,0,0,0,0,0,0,0,0,0,0,0,0,0,0,0.298,0.2981,0,0.3082,0.3083,0.3084,0.3,0.2996,0.2993,0.2989,0.3113,0.312,0.3127,0,0,0,0,0,0,0,0,0,0,0,0,0,0.2944,0.2944,0.298,0.2981,0.2982,0.3081,0.3083,0.3085,0.3001,0.2996,0.2992,0.2987,0.3111,0.3119,0.3127,0,0,0,0,0,0,0,0,0,0,0,0,0,0.2996,0.2944,0.298,0.295,0.2948,0.3081,0.3083,0.3085,0.3002,0.2996,0.299,0.2985,0.3108,0.3118,0.3129,0.3305,0,0,0.316,0.3164,0,0,0,0,0,0,0,0,0.2993,0.2998,0.2953,0.2952,0.295,0.302,0.3116,0.3159,0.3003,0.2984,0.2989,0.2982,0.3087,0.3099,0.3134,0.3311,0.3316,0.3161,0.3167,0.3171,0.3174,0,0,0,0,0,0,0,0.2989,0.2994,0.3023,0.2955,0.2953,0.3011,0.301,0.3125,0.3069,0.2985,0.2979,0.2988,0.3086,0.3124,0.3136,0.3318,0.316,0.317,0.3176,0.318,0.3491,0.3493,0,0,0,0,0,0,0.2966,0.299,0.3019,0.3025,0.2955,0.3015,0.3015,0.3006,0.3067,0.3069,0.2993,0.2984,0.3109,0.3124,0.314,0.3331,0.3171,0.3181,0.3187,0.3489,0.3492,0.3494,0,0,0,0,0,0,0.2965,0.2967,0.3015,0.3009,0.3018,0.302,0.3012,0.3011,0.3047,0.3071,0.3074,0.3029,0.3105,0.3126,0.3195,0.3335,0.3185,0.3195,0.3487,0.349,0.3493,0.3728,0,0,0,0,0,0,0.2963,0.2966,0.2986,0.3007,0.3018,0.3065,0.3017,0.3017,0.306,0.3049,0.3106,0.311,0.3102,0.3179,0.3205,0.3347,0.3203,0.3484,0.3488,0.3492,0.3718,0.3739,0.3757,0,0,0,0,0,0.2961,0.3005,0.2986,0.2991,0.3033,0.3066,0.3078,0.3064,0.3068,0.308,0.3099,0.3108,0.3222,0.319,0.322,0.3368,0.3482,0.3487,0.3491,0.3709,0.3735,0.3756,0,0,0,0,0,0,0.2983,0.3001,0.298,0.3019,0.3025,0.3049,0.3104,0.3098,0.3138,0.3127,0.3153,0.316,0.3284,0.3271,0.3235,0.3452,0.3352,0.3363,0.3507,0.3532,0.3551,0.3589,0.3211,0,0,0,0,0,0.3004,0.304,0.304,0.3067,0.3094,0.3114,0.3146,0.3109,0.3136,0.3148,0.3218,0.3264,0.3339,0.3379,0.3436,0.3578,0.3546,0.3676,0.3696,0.3713,0.3755,0.377,0.3797,0.351,0.351,0.3509,0,0,0.2999,0.3035,0.3038,0.3077,0.311,0.3169,0.312,0.3149,0.3205,0.3167,0.3322,0.336,0.3387,0.3519,0.3574,0.3522,0.3778,0.372,0.3736,0.3768,0.3779,0.3807,0.3832,0.3513,0.3512,0.3512,0,0,0.3048,0.3068,0.3124,0.3167,0.3206,0.3215,0.323,0.3281,0.3312,0.3427,0.3423,0.3528,0.3661,0.3714,0.3753,0.3924,0.3887,0.3938,0.4091,0.4106,0.4131,0.4152,0.4156,0.4176,0.3943,0.3944,0.3944,0,0.3063,0.3114,0.3141,0.3237,0.3278,0.3251,0.3308,0.3372,0.3434,0.3498,0.3479,0.3732,0.377,0.3947,0.3995,0.399,0.3956,0.4013,0.4137,0.4158,0.4176,0.4174,0.4193,0.3956,0.3954,0.3953,0.3952,0,0.3132,0.3212,0.327,0.3371,0.3417,0.3454,0.3513,0.3584,0.3641,0.3708,0.3905,0.3978,0.4136,0.4164,0.4151,0.4329,0.425,0.4169,0.409,0.422,0.4208,0.4224,0.3973,0.3968,0.3965,0.3962,0,0,0.3114,0.3274,0.3311,0.3373,0.3476,0.3509,0.364,0.3735,0.3879,0.3979,0.4195,0.4349,0.4435,0.4482,0.4513,0.4524,0.465,0.4418,0.4413,0.4447,0.4668,0.4475,0.4472,0.4572,0.4575,0.4579,0.4611,0,0.3168,0.331,0.3395,0.3538,0.3606,0.3666,0.3822,0.3911,0.4037,0.4262,0.4357,0.4574,0.4547,0.4666,0.4706,0.4675,0.4699,0.4648,0.4515,0.4513,0.4346,0.4487,0.4177,0.4167,0.4626,0.4628,0.463,0,0.3253,0.3319,0.3437,0.3624,0.3673,0.3794,0.3995,0.4123,0.4388,0.4515,0.4735,0.483,0.5013,0.4923,0.4981,0.4939,0.4858,0.4773,0.477,0.4525,0.4349,0.4106,0.4176,0.4655,0.4653,0.4651,0.465,0,0.3212,0.3397,0.3465,0.3526,0.3716,0.3838,0.3971,0.4221,0.436,0.4711,0.4838,0.5084,0.5204,0.5175,0.5078,0.5042,0.503,0.4952,0.4695,0.4679,0.436,0.4308,0.4957,0.4957,0.4957,0.4957,0.4957,0,0.3273,0.3358,0.3479,0.3541,0.37,0.3864,0.4128,0.4305,0.4602,0.4787,0.5009,0.5168,0.5251,0.5252,0.5161,0.4993,0.5115,0.4771,0.4693,0.4428,0.4384,0.4748,0.4724,0.4958,0.4958,0.4957,0.4957,0,0.3272,0.3343,0.3438,0.3616,0.3705,0.3837,0.417,0.4364,0.4627,0.4874,0.4971,0.5231,0.5256,0.5232,0.518,0.5052,0.4921,0.4798,0.4485,0.4369,0.4551,0.4538,0.4596,0.459,0.4585,0.4581,0.4577,0,0.3277,0.3312,0.3455,0.3555,0.3677,0.3903,0.4087,0.4372,0.4545,0.4863,0.4947,0.5084,0.5092,0.4989,0.4843,0.4663,0.4762,0.4256,0.4146,0.4606,0.4524,0.4519,0.4513,0.3824,0.3815,0.3807,0.3801,0,0.3258,0.3306,0.3391,0.3553,0.3743,0.3894,0.4162,0.4248,0.4543,0.4609,0.4694,0.47,0.4716,0.4443,0.4286,0.4144,0.4286,0.4087,0.4666,0.3947,0.3875,0.3795,0.3816,0.3732,0.3739,0.3744,0.3747,0.375,0.3254,0.3304,0.3423,0.357,0.3743,0.3852,0.3933,0.409,0.4139,0.4145,0.4283,0.4134,0.4188,0.378,0.3603,0.3533,0.379,0.363,0.3656,0.369,0.3578,0.3499,0.3265,0.3269,0.3273,0.3276,0.3279,0,0.3192,0.3325,0.3452,0.3574,0.3642,0.3811,0.3942,0.384,0.373,0.3734,0.3616,0.3222,0.3044,0.3143,0.2904,0.2828,0.2823,0.2744,0.2749,0.2819,0.2882,0.273,0.2192,0.2188,0.2185,0.2182,0,0,0.3204,0.3269,0.3298,0.3383,0.3529,0.3567,0.3594,0.3345,0.3252,0.2887,0.2782,0.2847,0.3018,0.2555,0.2481,0.2317,0.2548,0.2225,0.3104,0.3181,0.3239,0.3405,0.3252,0,0,0,0,0]},{"header":{"parameterUnit":"m.s-1","parameterCategory":2,"la1":30.2991,"la2":30.254,"lo1":-89.0895,"lo2":-89.0444,"dy":0.0017,"dx":0.0017,"nx":28,"ny":28,"refTime":"2023-06-28T21:00:00:Z","depth":"2","parameterNumber":3,"parameterNumberName":"V-component_of_CURRENTS"},"data":[0,0,0,0,0,0,0,0,0,0,0,0,0,0,0,0,0,0,0,0,0,0,0,0,0,0,0,0,0,0,0,0,0,0,0,0,0,0,0,0,0,0,0,0,0,0,0,0,0,0,0,0,0,0,0,0,0,0,-0.0096,-0.0096,0,-0.0157,-0.0158,-0.0159,-0.0173,-0.0172,-0.0171,-0.017,-0.0391,-0.0398,-0.0405,0,0,0,0,0,0,0,0,0,0,0,0,0,-0.0097,-0.0097,-0.0096,-0.0096,-0.0097,-0.0156,-0.0158,-0.0159,-0.0173,-0.0172,-0.017,-0.0169,-0.0389,-0.0397,-0.0405,0,0,0,0,0,0,0,0,0,0,0,0,0,-0.0126,-0.0097,-0.0096,-0.0106,-0.0107,-0.0156,-0.0158,-0.016,-0.0173,-0.0172,-0.017,-0.0169,-0.0386,-0.0396,-0.0406,-0.0498,0,0,-0.0438,-0.0442,0,0,0,0,0,0,0,0,-0.0125,-0.0127,-0.0105,-0.0106,-0.0107,-0.015,-0.0239,-0.0279,-0.0173,-0.0154,-0.017,-0.0168,-0.0323,-0.0338,-0.0359,-0.0509,-0.0518,-0.0438,-0.0445,-0.0449,-0.0452,0,0,0,0,0,0,0,-0.0122,-0.0125,-0.0126,-0.0105,-0.0106,-0.0143,-0.0146,-0.0247,-0.0254,-0.0156,-0.0156,-0.0153,-0.0325,-0.0349,-0.0365,-0.0521,-0.0438,-0.0447,-0.0454,-0.0458,-0.0688,-0.0688,0,0,0,0,0,0,-0.0099,-0.0123,-0.0124,-0.0127,-0.0106,-0.0143,-0.0146,-0.0143,-0.0249,-0.0261,-0.0155,-0.0154,-0.0332,-0.0353,-0.0373,-0.0434,-0.0449,-0.0459,-0.0464,-0.0688,-0.0688,-0.0688,0,0,0,0,0,0,-0.0099,-0.0099,-0.0122,-0.0122,-0.0126,-0.0144,-0.014,-0.0145,-0.016,-0.0245,-0.0261,-0.0164,-0.0332,-0.0358,-0.0429,-0.0445,-0.0463,-0.0472,-0.0688,-0.0688,-0.0688,-0.0593,0,0,0,0,0,0,-0.0099,-0.0099,-0.0101,-0.012,-0.0125,-0.0127,-0.0141,-0.0147,-0.0159,-0.0158,-0.026,-0.0278,-0.0333,-0.0413,-0.0439,-0.0459,-0.048,-0.0688,-0.0688,-0.0688,-0.0596,-0.059,-0.0585,0,0,0,0,0,-0.0099,-0.0091,-0.0101,-0.0101,-0.0124,-0.0126,-0.0132,-0.0145,-0.016,-0.0158,-0.0216,-0.0274,-0.0432,-0.0422,-0.0452,-0.0476,-0.0688,-0.0688,-0.0688,-0.0599,-0.0591,-0.0585,0,0,0,0,0,0,-0.0086,-0.0092,-0.0103,-0.0096,-0.0102,-0.0125,-0.0129,-0.0146,-0.0193,-0.0194,-0.0283,-0.0306,-0.0382,-0.0439,-0.0425,-0.0539,-0.0569,-0.0575,-0.0491,-0.0485,-0.0479,-0.0426,-0.0489,0,0,0,0,0,-0.0087,-0.0085,-0.0094,-0.0088,-0.0091,-0.0117,-0.0126,-0.0126,-0.0161,-0.0179,-0.0262,-0.0339,-0.0411,-0.0449,-0.0531,-0.0599,-0.0622,-0.063,-0.0624,-0.0619,-0.0596,-0.0628,-0.0622,-0.0688,-0.0688,-0.0688,0,0,-0.0071,-0.0083,-0.0076,-0.0087,-0.01,-0.0092,-0.012,-0.0113,-0.011,-0.0204,-0.0257,-0.0339,-0.0427,-0.0489,-0.0528,-0.0534,-0.0613,-0.0619,-0.0613,-0.0593,-0.0627,-0.062,-0.0614,-0.0688,-0.0688,-0.0688,0,0,-0.0039,-0.0058,-0.0044,-0.0053,-0.0059,-0.0069,-0.0064,-0.0095,-0.0111,-0.0161,-0.0227,-0.0298,-0.0427,-0.0475,-0.0517,-0.0533,-0.0591,-0.0573,-0.0495,-0.0527,-0.0521,-0.0516,-0.0533,-0.053,-0.0557,-0.0557,-0.0557,0,-0.0028,-0.0006,-0.0039,-0.0035,-0.0023,-0.0055,-0.0022,-0.0054,-0.0107,-0.0118,-0.016,-0.0323,-0.0413,-0.0462,-0.0459,-0.0521,-0.0535,-0.0514,-0.0516,-0.0512,-0.0508,-0.0527,-0.0525,-0.0552,-0.0553,-0.0553,-0.0554,0,0.0027,0.003,0.0038,0.0036,0.0037,0.0064,0.0038,0.0018,-0.002,-0.0054,-0.0127,-0.0243,-0.0325,-0.0378,-0.0426,-0.0451,-0.0469,-0.0513,-0.0525,-0.0495,-0.0518,-0.0517,-0.0546,-0.0547,-0.0549,-0.055,0,0,0.0075,0.0083,0.0077,0.0101,0.0089,0.0106,0.0105,0.0111,0.0121,0.0023,0.0027,-0.0123,-0.019,-0.0239,-0.0329,-0.0356,-0.0363,-0.0407,-0.0411,-0.0406,-0.041,-0.0446,-0.045,-0.0399,-0.0398,-0.0398,-0.0433,0,0.013,0.0182,0.0161,0.0211,0.025,0.022,0.0218,0.0208,0.0179,0.0156,0.0049,-0.0012,-0.0136,-0.0172,-0.0223,-0.0319,-0.0357,-0.0348,-0.0454,-0.0457,-0.0479,-0.045,-0.0397,-0.0426,-0.0433,-0.0433,-0.0433,0,0.018,0.0219,0.0296,0.0326,0.0336,0.0344,0.0378,0.0377,0.0338,0.0311,0.0245,0.0152,0.0077,-0.0031,-0.0173,-0.0155,-0.0273,-0.0354,-0.0359,-0.042,-0.0492,-0.0461,-0.0426,-0.0433,-0.0433,-0.0433,-0.0433,0,0.0253,0.0297,0.0379,0.039,0.0417,0.0434,0.0439,0.0419,0.0449,0.0414,0.0435,0.0306,0.0272,0.0109,-0.009,-0.012,-0.0225,-0.0296,-0.0445,-0.0449,-0.0439,-0.0442,-0.0401,-0.0401,-0.0401,-0.04,-0.04,0,0.0314,0.036,0.0415,0.0451,0.0529,0.0511,0.0572,0.0557,0.0575,0.0654,0.051,0.0563,0.031,0.0208,-0.0006,-0.0206,-0.0174,-0.0413,-0.0456,-0.0407,-0.0407,-0.0447,-0.0452,-0.0402,-0.0402,-0.0401,-0.0401,0,0.0353,0.0389,0.0482,0.0545,0.056,0.061,0.0661,0.0716,0.0713,0.0826,0.0828,0.0777,0.0663,0.0384,0.0155,-0.0074,-0.0285,-0.038,-0.03,-0.0333,-0.0508,-0.0508,-0.0529,-0.053,-0.0532,-0.0533,-0.0534,0,0.0383,0.0443,0.0555,0.0605,0.0624,0.0694,0.0747,0.0775,0.0868,0.0988,0.1074,0.1002,0.0975,0.0602,0.021,-0.0176,-0.0248,-0.0397,-0.0473,-0.0479,-0.0519,-0.0517,-0.0515,-0.0418,-0.0418,-0.0418,-0.0418,0,0.0444,0.0483,0.0558,0.0684,0.0754,0.0865,0.0956,0.1063,0.1161,0.1278,0.1449,0.1439,0.1098,0.0754,0.02,-0.0058,-0.0337,-0.0408,-0.0413,-0.0404,-0.0381,-0.0419,-0.0419,-0.0417,-0.0417,-0.0417,-0.0417,-0.0417,0.0477,0.0546,0.0652,0.0766,0.0866,0.1036,0.116,0.1335,0.154,0.1719,0.1685,0.1664,0.1245,0.0556,0.0148,-0.0293,-0.0317,-0.0499,-0.0496,-0.0495,-0.0485,-0.0467,-0.0516,-0.0517,-0.0517,-0.0518,-0.0518,0,0.055,0.0611,0.0724,0.0883,0.1025,0.1061,0.131,0.1488,0.1805,0.1872,0.1943,0.153,0.1123,0.0671,0.0022,-0.0399,-0.0423,-0.0509,-0.0447,-0.0446,-0.0446,-0.0432,-0.045,-0.0451,-0.0451,-0.0452,0,0,0.0582,0.0705,0.0783,0.1011,0.1109,0.1343,0.1507,0.181,0.1954,0.2047,0.1981,0.1747,0.1232,0.0768,0.024,-0.0085,-0.0172,-0.0154,-0.0173,-0.0037,-0.0031,-0.0412,-0.0387,0,0,0,0,0]}],[{"header":{"parameterUnit":"m.s-1","parameterCategory":2,"la1":30.2991,"la2":30.254,"lo1":-89.0895,"lo2":-89.0444,"dy":0.0017,"dx":0.0017,"nx":28,"ny":28,"refTime":"2023-06-28T21:00:00:Z","depth":"4","parameterNumber":2,"parameterNumberName":"U-component_of_CURRENTS"},"data":[0,0,0,0,0,0,0,0,0,0,0,0,0,0,0,0,0,0,0,0,0,0,0,0,0,0,0,0,0,0,0,0,0,0,0,0,0,0,0,0,0,0,0,0,0,0,0,0,0,0,0,0,0,0,0,0,0,0,0.1507,0.1508,0,0.1542,0.1542,0.1542,0.1556,0.1557,0.1557,0.1558,0.1573,0.1573,0.1573,0,0,0,0,0,0,0,0,0,0,0,0,0,0.1418,0.1419,0.1507,0.1508,0.1509,0.1542,0.1542,0.1542,0.1556,0.1557,0.1557,0.1558,0.1573,0.1573,0.1573,0,0,0,0,0,0,0,0,0,0,0,0,0,0.145,0.1419,0.1507,0.1524,0.1526,0.1542,0.1542,0.1542,0.1556,0.1557,0.1557,0.1558,0.1573,0.1573,0.1573,0.1561,0,0,0.1573,0.1573,0,0,0,0,0,0,0,0,0.1448,0.1453,0.152,0.1523,0.1525,0.155,0.1516,0.1549,0.1556,0.1539,0.1558,0.1558,0.1566,0.1567,0.1565,0.1562,0.1563,0.1573,0.1573,0.1573,0.1573,0,0,0,0,0,0,0,0.1446,0.1451,0.1516,0.1521,0.1524,0.1518,0.1523,0.1522,0.1545,0.1541,0.1543,0.1555,0.1567,0.1565,0.1566,0.1563,0.1573,0.1573,0.1573,0.1573,0.1693,0.1696,0,0,0,0,0,0,0.1454,0.1449,0.1515,0.1517,0.1493,0.152,0.1525,0.1537,0.1545,0.1549,0.1555,0.1556,0.1565,0.1566,0.1566,0.1654,0.1573,0.1573,0.1573,0.169,0.1694,0.1697,0,0,0,0,0,0,0.1451,0.1459,0.1513,0.1488,0.1495,0.1521,0.1534,0.1538,0.157,0.1557,0.1559,0.1588,0.1565,0.1566,0.1615,0.1651,0.1573,0.1573,0.1686,0.1691,0.1695,0.1766,0,0,0,0,0,0,0.1449,0.1458,0.148,0.1489,0.1497,0.1536,0.1535,0.1538,0.1577,0.1579,0.1586,0.1586,0.1566,0.1616,0.1616,0.165,0.1573,0.1682,0.1688,0.1694,0.1759,0.1772,0.1783,0,0,0,0,0,0.1445,0.1456,0.148,0.1489,0.1523,0.1537,0.154,0.1557,0.1578,0.1589,0.162,0.1587,0.1653,0.1618,0.1617,0.1652,0.1679,0.1686,0.1693,0.1754,0.177,0.1783,0,0,0,0,0,0,0.1425,0.146,0.1486,0.1509,0.1535,0.1542,0.1554,0.158,0.1611,0.1624,0.162,0.1623,0.1688,0.1668,0.163,0.1711,0.1663,0.1671,0.171,0.1724,0.1736,0.1738,0.1574,0,0,0,0,0,0.1435,0.1455,0.1489,0.151,0.1525,0.1553,0.1568,0.1586,0.1611,0.1627,0.1639,0.1666,0.1709,0.1716,0.174,0.1769,0.177,0.1797,0.1809,0.1819,0.1825,0.1883,0.1899,0.172,0.172,0.172,0,0,0.1435,0.1457,0.1471,0.1509,0.1527,0.156,0.1562,0.159,0.1636,0.1623,0.1686,0.1713,0.1735,0.1784,0.1808,0.177,0.1872,0.1828,0.1836,0.1836,0.1892,0.1909,0.1924,0.1725,0.1724,0.1723,0,0,0.1422,0.1463,0.1472,0.1503,0.1546,0.1574,0.1596,0.1629,0.1662,0.1727,0.175,0.1806,0.1842,0.1867,0.1888,0.1981,0.1948,0.199,0.2027,0.2084,0.2098,0.2111,0.2129,0.2143,0.1977,0.1977,0.1977,0,0.1426,0.1454,0.1477,0.1499,0.1544,0.1591,0.163,0.1667,0.172,0.1753,0.176,0.1872,0.1887,0.1965,0.2004,0.2005,0.2019,0.1963,0.2097,0.211,0.2121,0.2137,0.2151,0.1981,0.1981,0.198,0.198,0,0.1418,0.1462,0.1469,0.1531,0.1574,0.1614,0.1682,0.1734,0.1795,0.1827,0.1927,0.1966,0.2025,0.2049,0.2056,0.2151,0.2129,0.2117,0.2051,0.2143,0.2154,0.2168,0.1987,0.1986,0.1984,0.1983,0,0,0.1377,0.1454,0.1464,0.1505,0.1608,0.1632,0.1731,0.1815,0.1877,0.1939,0.2014,0.2109,0.2124,0.2152,0.2171,0.2216,0.2315,0.2202,0.2203,0.2203,0.2421,0.226,0.2258,0.2327,0.233,0.2333,0.2392,0,0.1379,0.143,0.1483,0.1561,0.1602,0.1697,0.1777,0.186,0.1944,0.2016,0.2078,0.2167,0.2165,0.2217,0.226,0.2325,0.2356,0.2298,0.2347,0.2348,0.218,0.2271,0.2342,0.2401,0.2404,0.2407,0.2408,0,0.1352,0.1405,0.1483,0.1589,0.1615,0.1683,0.1833,0.1909,0.2023,0.2091,0.2178,0.2225,0.2332,0.2312,0.2438,0.2404,0.2418,0.2443,0.2446,0.2278,0.2212,0.2295,0.2432,0.243,0.2428,0.2427,0.2425,0,0.1294,0.1396,0.147,0.1511,0.1642,0.1711,0.1796,0.1929,0.2014,0.2156,0.2234,0.233,0.2415,0.247,0.2526,0.2503,0.263,0.2599,0.2455,0.2442,0.2534,0.252,0.2665,0.2665,0.2665,0.2665,0.2665,0,0.1264,0.1321,0.1453,0.1488,0.1585,0.1687,0.1801,0.1906,0.2059,0.2152,0.2268,0.2356,0.2468,0.254,0.2558,0.2548,0.266,0.2476,0.2457,0.2562,0.2551,0.2542,0.2527,0.2667,0.2667,0.2666,0.2666,0,0.1181,0.1275,0.135,0.1498,0.1555,0.1623,0.181,0.1883,0.2059,0.2198,0.2263,0.2419,0.2523,0.2586,0.2678,0.2587,0.2601,0.2556,0.2659,0.2643,0.236,0.2349,0.2406,0.2401,0.2397,0.2393,0.239,0,0.1144,0.1178,0.1328,0.1382,0.1461,0.1587,0.1671,0.1869,0.1961,0.2216,0.2262,0.2427,0.2503,0.2498,0.2567,0.2574,0.2534,0.2501,0.243,0.2363,0.234,0.2335,0.2329,0.2384,0.2383,0.2381,0.238,0,0.1072,0.1132,0.1185,0.1294,0.1397,0.1494,0.1636,0.1701,0.1928,0.2113,0.2235,0.2291,0.2371,0.2407,0.2422,0.242,0.2511,0.2457,0.2464,0.2397,0.2336,0.2316,0.2316,0.2366,0.2368,0.2369,0.237,0,0.1008,0.1018,0.1091,0.1183,0.1298,0.1369,0.1459,0.1587,0.1716,0.2018,0.2045,0.2214,0.2362,0.2327,0.2349,0.2332,0.2288,0.2192,0.2213,0.223,0.214,0.2034,0.1968,0,0,0,0,0,0.0938,0.0938,0.0983,0.1069,0.1173,0.1246,0.1421,0.152,0.1755,0.1803,0.1933,0.2014,0.2073,0.2137,0.2082,0.2225,0.2263,0.2145,0.2155,0.2285,0.2302,0.2209,0,0,0,0,0,0,0.0893,0.0919,0.0929,0.0963,0.0996,0.1106,0.1204,0.1361,0.14,0.1644,0.1686,0.1873,0.1945,0.2087,0.2038,0.2056,0.2015,0.2256,0.225,0.2275,0.2291,0.2304,0.2215,0,0,0,0,0]},{"header":{"parameterUnit":"m.s-1","parameterCategory":2,"la1":30.2991,"la2":30.254,"lo1":-89.0895,"lo2":-89.0444,"dy":0.0017,"dx":0.0017,"nx":28,"ny":28,"refTime":"2023-06-28T21:00:00:Z","depth":"4","parameterNumber":3,"parameterNumberName":"V-component_of_CURRENTS"},"data":[0,0,0,0,0,0,0,0,0,0,0,0,0,0,0,0,0,0,0,0,0,0,0,0,0,0,0,0,0,0,0,0,0,0,0,0,0,0,0,0,0,0,0,0,0,0,0,0,0,0,0,0,0,0,0,0,0,0,0.0099,0.0099,0,0.0075,0.0074,0.0074,0.0054,0.0054,0.0054,0.0054,-0.0057,-0.006,-0.0063,0,0,0,0,0,0,0,0,0,0,0,0,0,0.0107,0.0107,0.0099,0.0099,0.0099,0.0075,0.0074,0.0074,0.0054,0.0054,0.0054,0.0054,-0.0056,-0.006,-0.0063,0,0,0,0,0,0,0,0,0,0,0,0,0,0.0095,0.0107,0.0099,0.0087,0.0086,0.0075,0.0074,0.0074,0.0054,0.0054,0.0054,0.0054,-0.0055,-0.0059,-0.0063,-0.0086,0,0,-0.0076,-0.0078,0,0,0,0,0,0,0,0,0.0095,0.0094,0.0089,0.0088,0.0086,0.0068,0.0037,0.0016,0.0055,0.0065,0.0054,0.0054,-0.0023,-0.0029,-0.0034,-0.0091,-0.0096,-0.0077,-0.0079,-0.0081,-0.0082,0,0,0,0,0,0,0,0.0096,0.0095,0.0089,0.0089,0.0087,0.0075,0.0073,0.0033,0.002,0.0064,0.0063,0.0062,-0.0024,-0.0029,-0.0037,-0.0098,-0.0077,-0.008,-0.0083,-0.0085,-0.0209,-0.021,0,0,0,0,0,0,0.0102,0.0096,0.009,0.0088,0.0091,0.0075,0.0073,0.0073,0.0023,0.0016,0.0062,0.0061,-0.0022,-0.0032,-0.0041,-0.0074,-0.0081,-0.0085,-0.0088,-0.0208,-0.0209,-0.021,0,0,0,0,0,0,0.0103,0.0102,0.0091,0.0092,0.009,0.0075,0.0076,0.0073,0.007,0.0022,0.0013,0.0062,-0.0023,-0.0035,-0.0076,-0.0079,-0.0087,-0.0091,-0.0207,-0.0209,-0.021,-0.014,0,0,0,0,0,0,0.0103,0.0103,0.0103,0.0093,0.009,0.0096,0.0076,0.0073,0.0069,0.0068,0.0019,0.0008,-0.0024,-0.0069,-0.008,-0.0085,-0.0094,-0.0206,-0.0208,-0.0209,-0.0141,-0.0138,-0.0136,0,0,0,0,0,0.0104,0.0119,0.0103,0.0102,0.0092,0.0096,0.0094,0.0082,0.007,0.0076,0.0035,0.001,-0.0086,-0.0073,-0.0085,-0.0092,-0.0206,-0.0208,-0.0209,-0.0142,-0.0139,-0.0136,0,0,0,0,0,0,0.0123,0.0118,0.01,0.0112,0.0104,0.0094,0.01,0.0086,0.006,0.0055,0.0005,-0.0008,-0.0048,-0.0083,-0.0067,-0.0135,-0.0152,-0.0157,-0.0097,-0.0095,-0.0092,-0.0076,-0.0098,0,0,0,0,0,0.0126,0.0137,0.0122,0.0131,0.0129,0.0111,0.0109,0.0101,0.0079,0.0069,0.0036,-0.0014,-0.0065,-0.0088,-0.0132,-0.0164,-0.0207,-0.0181,-0.0178,-0.0175,-0.0173,-0.0252,-0.0255,-0.0215,-0.0215,-0.0215,0,0,0.0134,0.0135,0.0138,0.0136,0.0129,0.0135,0.011,0.0117,0.0117,0.0058,0.0047,-0.0004,-0.0074,-0.0109,-0.0131,-0.0137,-0.0206,-0.0178,-0.0174,-0.0174,-0.0254,-0.0258,-0.0261,-0.0217,-0.0216,-0.0216,0,0,0.0172,0.0158,0.0181,0.0177,0.0173,0.0161,0.0163,0.0153,0.0142,0.0121,0.0069,0.0018,-0.004,-0.0092,-0.0129,-0.0143,-0.0191,-0.0159,-0.013,-0.0205,-0.0209,-0.0213,-0.0251,-0.0259,-0.0156,-0.0156,-0.0155,0,0.0179,0.0203,0.0188,0.0207,0.0208,0.0174,0.0193,0.0176,0.0153,0.0137,0.0127,0.0015,-0.0035,-0.0107,-0.0107,-0.0136,-0.0175,-0.0129,-0.02,-0.0205,-0.021,-0.0249,-0.0258,-0.0152,-0.0153,-0.0153,-0.0153,0,0.0227,0.0244,0.026,0.0267,0.0267,0.028,0.0253,0.0245,0.0222,0.0194,0.0133,0.0059,-0.0009,-0.0037,-0.0073,-0.0139,-0.0153,-0.0186,-0.02,-0.0209,-0.025,-0.0261,-0.0148,-0.0149,-0.015,-0.0151,0,0,0.0252,0.0286,0.0292,0.0308,0.0299,0.0309,0.03,0.028,0.0269,0.0221,0.0188,0.0098,0.0053,0.0006,-0.0058,-0.0121,-0.0179,-0.0157,-0.0163,-0.018,-0.0323,-0.03,-0.031,-0.0226,-0.0228,-0.023,-0.0328,0,0.0291,0.0348,0.0349,0.0391,0.0411,0.0379,0.0378,0.035,0.031,0.0269,0.0169,0.0117,0.0068,0.0036,-0.0039,-0.0151,-0.0209,-0.0148,-0.0325,-0.0329,-0.0297,-0.0323,-0.0236,-0.0337,-0.0339,-0.0341,-0.0343,0,0.0333,0.0369,0.0426,0.0456,0.0461,0.0479,0.0462,0.0454,0.0376,0.0345,0.0262,0.0182,0.0077,0.0037,-0.0148,-0.0106,-0.0203,-0.0286,-0.0293,-0.0306,-0.0328,-0.0335,-0.0363,-0.0362,-0.036,-0.0359,-0.0357,0,0.0366,0.042,0.0473,0.0482,0.0506,0.0524,0.0525,0.0479,0.0479,0.0389,0.0371,0.0223,0.0156,0.0003,-0.0161,-0.0158,-0.0365,-0.0388,-0.0459,-0.0457,-0.0476,-0.0472,-0.0521,-0.0521,-0.052,-0.052,-0.052,0,0.0403,0.0444,0.05,0.0528,0.0586,0.0577,0.0612,0.0587,0.0551,0.0548,0.0417,0.0369,0.0144,-0.0003,-0.0155,-0.0334,-0.0364,-0.0456,-0.049,-0.0442,-0.0432,-0.0483,-0.0477,-0.0524,-0.0523,-0.0522,-0.0522,0,0.043,0.0464,0.053,0.0585,0.061,0.0648,0.0696,0.071,0.0673,0.066,0.0639,0.0473,0.0287,0.0066,-0.0191,-0.0306,-0.0491,-0.0549,-0.0457,-0.0484,-0.0529,-0.0518,-0.0631,-0.0631,-0.0631,-0.0631,-0.0631,0,0.0447,0.0488,0.0583,0.0628,0.0663,0.0725,0.0769,0.0774,0.079,0.0726,0.0716,0.0539,0.0408,0.0071,-0.017,-0.0462,-0.0504,-0.0587,-0.0579,-0.0523,-0.0545,-0.0534,-0.0524,-0.0632,-0.0632,-0.0632,-0.0632,0,0.0475,0.0517,0.0577,0.068,0.0752,0.0822,0.0882,0.0913,0.0908,0.0883,0.0786,0.0596,0.0376,0.0089,-0.0142,-0.0354,-0.0529,-0.059,-0.0591,-0.0584,-0.0525,-0.0545,-0.0534,-0.0632,-0.0632,-0.0632,-0.0632,0,0.0499,0.0542,0.063,0.0719,0.081,0.0885,0.0919,0.0942,0.0962,0.0903,0.0867,0.0623,0.0473,0.0144,-0.0071,-0.0278,-0.0327,-0.0382,-0.0395,-0.0397,-0.0306,-0.0195,-0.0233,0,0,0,0,0,0.0511,0.0564,0.0652,0.0752,0.0846,0.0898,0.0976,0.0998,0.1011,0.0967,0.0924,0.0724,0.0389,0.0219,0.002,-0.0086,-0.0372,-0.0327,-0.0443,-0.0636,-0.0635,-0.0568,0,0,0,0,0,0,0.0518,0.0601,0.0653,0.077,0.0836,0.0939,0.0991,0.1003,0.0972,0.0948,0.0766,0.0684,0.0345,0.0504,0.0015,-0.0052,-0.0148,-0.0489,-0.0493,-0.0637,-0.0636,-0.0635,-0.0566,0,0,0,0,0]}]]